[[{"header":{"parameterUnit":"m.s-1","parameterCategory":1,"la1":30.2991,"la2":30.254,"lo1":-89.0895,"lo2":-89.0444,"dy":0.0017,"dx":0.0017,"nx":28,"ny":28,"refTime":"2025-04-08T09:00:00:Z","depth":0,"parameterNumber":2,"parameterNumberName":"U-component_of_WINDS"},"data":[0,0,0,0,0,0,0,0,0,0,0,0,0,0,0,0,0,0,0,0,0,0,0,0,0,0,0,0,0,0,0,0,0,0,0,0,0,0,0,0,0,0,0,0,0,0,0,0,0,0,0,0,0,0,0,0,0,0,2.3522,2.3522,0,2.3524,2.3524,2.3524,2.3478,2.3477,2.3476,2.3474,2.3476,2.3477,2.3478,0,0,0,0,0,0,0,0,0,0,0,0,0,2.3476,2.3477,2.3522,2.3522,2.3522,2.3524,2.3524,2.3524,2.3478,2.3477,2.3475,2.3474,2.3475,2.3477,2.3478,0,0,0,0,0,0,0,0,0,0,0,0,0,2.3489,2.3478,2.3522,2.3499,2.3497,2.3524,2.3524,2.3524,2.3479,2.3477,2.3475,2.3473,2.3475,2.3477,2.3478,2.3527,0,0,2.3484,2.3485,0,0,0,0,0,0,0,0,2.3489,2.3491,2.3502,2.3501,2.3499,2.3499,2.3509,2.3525,2.3479,2.3486,2.3474,2.3472,2.3485,2.3486,2.349,2.3527,2.3527,2.3484,2.3485,2.3486,2.3486,0,0,0,0,0,0,0,2.3488,2.3491,2.3523,2.3503,2.35,2.3489,2.3488,2.3512,2.3496,2.3485,2.3482,2.3483,2.3483,2.3489,2.349,2.3527,2.3484,2.3486,2.3487,2.3487,2.3603,2.3605,0,0,0,0,0,0,2.349,2.349,2.3522,2.3523,2.3489,2.3491,2.3491,2.3501,2.3495,2.3493,2.3484,2.348,2.3487,2.3488,2.349,2.3545,2.3486,2.3488,2.3489,2.3601,2.3603,2.3605,0,0,0,0,0,0,2.3489,2.3493,2.3522,2.3506,2.3508,2.3494,2.3505,2.3502,2.3507,2.3495,2.3492,2.3492,2.3485,2.3487,2.3518,2.3545,2.3488,2.349,2.3599,2.3602,2.3604,2.3657,0,0,0,0,0,0,2.3488,2.3493,2.3511,2.3506,2.3509,2.3551,2.3507,2.3503,2.351,2.3505,2.3502,2.3499,2.3484,2.3515,2.352,2.3546,2.3491,2.3596,2.36,2.3603,2.3653,2.3661,2.3669,0,0,0,0,0,2.3487,2.3526,2.3513,2.3517,2.3532,2.3552,2.3554,2.3536,2.3513,2.353,2.3523,2.3499,2.3542,2.3519,2.3523,2.3551,2.3594,2.3599,2.3603,2.3649,2.366,2.3668,0,0,0,0,0,0,2.3534,2.3525,2.351,2.3549,2.3552,2.3544,2.3566,2.3548,2.3557,2.3552,2.3529,2.3528,2.3563,2.356,2.3535,2.3597,2.3564,2.3569,2.3597,2.3607,2.3615,2.3614,2.3493,0,0,0,0,0,2.3549,2.3566,2.3558,2.3593,2.3595,2.3581,2.3589,2.3575,2.3577,2.3578,2.3572,2.3575,2.3589,2.3598,2.361,2.3653,2.3651,2.3674,2.3682,2.3689,2.3693,2.3715,2.3725,2.362,2.362,2.362,0,0,2.3579,2.3577,2.3589,2.3602,2.3603,2.3621,2.3582,2.3603,2.3616,2.3581,2.3609,2.3606,2.3607,2.3644,2.366,2.3642,2.3722,2.3694,2.37,2.37,2.3721,2.373,2.3739,2.3623,2.3623,2.3622,0,0,2.3644,2.3645,2.3674,2.3676,2.3678,2.3668,2.3676,2.3672,2.3668,2.3696,2.367,2.3686,2.371,2.3712,2.3716,2.3784,2.3763,2.3789,2.383,2.3852,2.386,2.3867,2.389,2.3899,2.3794,2.3794,2.3794,0,2.3682,2.3709,2.3691,2.3714,2.372,2.369,2.3719,2.3722,2.3728,2.3732,2.3714,2.3744,2.3743,2.3779,2.3796,2.3801,2.3808,2.3788,2.386,2.3867,2.3874,2.3895,2.3904,2.3797,2.3797,2.3797,2.3796,0,2.3755,2.3774,2.3797,2.3804,2.3813,2.3839,2.3825,2.3836,2.3823,2.3815,2.3845,2.3843,2.3854,2.3862,2.3848,2.3897,2.3886,2.3865,2.383,2.3887,2.3907,2.3915,2.3802,2.3801,2.38,2.3799,0,0,2.3846,2.3845,2.3853,2.3856,2.3857,2.3871,2.3897,2.3908,2.3918,2.3924,2.3943,2.3966,2.3946,2.3951,2.3937,2.3957,2.4009,2.3933,2.3932,2.3945,2.4062,2.4076,2.4086,2.3996,2.3998,2.3999,2.4061,0,2.3908,2.395,2.3936,2.3979,2.3996,2.3969,2.3991,2.3994,2.3988,2.4002,2.3996,2.4011,2.3985,2.3988,2.4006,2.3999,2.4032,2.3995,2.4013,2.4014,2.4011,2.4097,2.4112,2.417,2.4069,2.407,2.4071,0,2.3985,2.3995,2.404,2.4038,2.4045,2.4065,2.4074,2.4088,2.4091,2.4086,2.4092,2.4075,2.4099,2.4067,2.41,2.4075,2.4082,2.408,2.4082,2.4081,2.4044,2.4096,2.4189,2.4197,2.4083,2.4082,2.4082,0,2.4046,2.407,2.41,2.4104,2.4103,2.4117,2.4118,2.4119,2.4127,2.4136,2.4141,2.4153,2.4158,2.4167,2.4154,2.4132,2.4188,2.4155,2.4183,2.4183,2.4194,2.4193,2.4287,2.4202,2.4202,2.4202,2.4202,0,2.4115,2.4143,2.4127,2.4145,2.4176,2.416,2.4191,2.4188,2.419,2.4207,2.4185,2.4201,2.4183,2.4198,2.4188,2.4216,2.4219,2.4214,2.4211,2.4215,2.4215,2.4217,2.4212,2.4204,2.4204,2.4203,2.4203,0,2.4186,2.4177,2.4208,2.4206,2.4206,2.4228,2.4226,2.4243,2.4237,2.4258,2.4263,2.4253,2.4269,2.4257,2.4273,2.4266,2.4302,2.4294,2.4301,2.4298,2.4326,2.4323,2.4423,2.4435,2.4345,2.4346,2.4347,0,2.423,2.4251,2.4252,2.4262,2.4264,2.428,2.4289,2.4274,2.4284,2.429,2.4306,2.4321,2.4331,2.4358,2.4352,2.4364,2.4355,2.4389,2.4356,2.436,2.4353,2.4351,2.4353,2.4395,2.4396,2.4397,2.4398,0,2.4308,2.4302,2.4316,2.4328,2.4339,2.4348,2.4355,2.4364,2.435,2.4362,2.4378,2.4387,2.4404,2.4418,2.4429,2.4428,2.441,2.4409,2.4415,2.4418,2.4421,2.4418,2.4317,2.4406,2.4405,2.4404,2.4404,2.4403,2.4365,2.4382,2.4386,2.4401,2.4406,2.4413,2.4428,2.4425,2.4439,2.4452,2.4443,2.4462,2.4466,2.4478,2.448,2.4495,2.4481,2.4491,2.4493,2.4496,2.4499,2.4421,2.4497,2.4497,2.4497,2.4497,2.4496,0,2.444,2.4441,2.4456,2.4467,2.448,2.4464,2.4471,2.4482,2.45,2.4505,2.4516,2.4536,2.455,2.4546,2.4559,2.4572,2.4564,2.4575,2.4573,2.4573,2.4512,2.4504,2.4581,2.4581,2.4581,2.4581,2.4581,2.4581,2.448,2.4508,2.4504,2.4535,2.4536,2.4555,2.4561,2.4567,2.4571,2.4594,2.4606,2.4604,2.4605,2.4618,2.4631,2.4629,2.4634,2.4648,2.4644,2.4586,2.4577,2.4569,2.4561,2.465,2.465,2.4703,2.4704,2.4704]},{"header":{"parameterUnit":"m.s-1","parameterCategory":1,"la1":30.2991,"la2":30.254,"lo1":-89.0895,"lo2":-89.0444,"dy":0.0017,"dx":0.0017,"nx":28,"ny":28,"refTime":"2025-04-08T09:00:00:Z","depth":0,"parameterNumber":3,"parameterNumberName":"V-component_of_WINDS"},"data":[0,0,0,0,0,0,0,0,0,0,0,0,0,0,0,0,0,0,0,0,0,0,0,0,0,0,0,0,0,0,0,0,0,0,0,0,0,0,0,0,0,0,0,0,0,0,0,0,0,0,0,0,0,0,0,0,0,0,-3.5868,-3.587,0,-3.6082,-3.6084,-3.6087,-3.6073,-3.607,-3.6067,-3.6064,-3.6285,-3.6294,-3.6303,0,0,0,0,0,0,0,0,0,0,0,0,0,-3.5449,-3.5457,-3.5868,-3.587,-3.5873,-3.6082,-3.6085,-3.6088,-3.6074,-3.607,-3.6066,-3.6063,-3.6282,-3.6293,-3.6303,0,0,0,0,0,0,0,0,0,0,0,0,0,-3.5644,-3.5459,-3.5867,-3.5891,-3.5896,-3.6081,-3.6085,-3.6088,-3.6075,-3.607,-3.6065,-3.6061,-3.6279,-3.6292,-3.6305,-3.6481,0,0,-3.6345,-3.6351,0,0,0,0,0,0,0,0,-3.5633,-3.5659,-3.5885,-3.589,-3.5895,-3.6046,-3.6018,-3.622,-3.6076,-3.6007,-3.6064,-3.6059,-3.621,-3.6228,-3.6279,-3.6491,-3.6501,-3.6346,-3.6354,-3.636,-3.6364,0,0,0,0,0,0,0,-3.5619,-3.565,-3.5953,-3.5888,-3.5895,-3.5892,-3.5915,-3.6056,-3.6132,-3.6012,-3.6012,-3.6037,-3.6212,-3.6266,-3.6284,-3.6504,-3.6346,-3.6358,-3.6366,-3.6371,-3.6872,-3.6877,0,0,0,0,0,0,-3.56,-3.5639,-3.5946,-3.5959,-3.575,-3.5904,-3.5929,-3.6002,-3.6131,-3.6145,-3.6041,-3.6036,-3.6246,-3.6269,-3.6292,-3.6507,-3.636,-3.6372,-3.638,-3.6867,-3.6873,-3.6879,0,0,0,0,0,0,-3.5591,-3.5628,-3.5937,-3.5799,-3.5838,-3.5916,-3.5999,-3.6009,-3.6064,-3.6152,-3.6166,-3.6083,-3.6243,-3.6273,-3.6434,-3.6514,-3.6378,-3.639,-3.686,-3.6869,-3.6876,-3.6938,0,0,0,0,0,0,-3.5579,-3.5625,-3.5692,-3.58,-3.5845,-3.6076,-3.6004,-3.6017,-3.6086,-3.6082,-3.6195,-3.6209,-3.6242,-3.6414,-3.6447,-3.653,-3.6401,-3.6854,-3.6864,-3.6874,-3.693,-3.6948,-3.6963,0,0,0,0,0,-3.5564,-3.5701,-3.5695,-3.5732,-3.5931,-3.608,-3.6106,-3.614,-3.6093,-3.6162,-3.6218,-3.6206,-3.65,-3.6431,-3.6468,-3.6556,-3.6849,-3.6861,-3.6873,-3.6922,-3.6944,-3.6963,0,0,0,0,0,0,-3.56,-3.5716,-3.5711,-3.5886,-3.5973,-3.6077,-3.6165,-3.6162,-3.6265,-3.6256,-3.6294,-3.632,-3.6482,-3.6535,-3.6456,-3.6733,-3.6668,-3.6688,-3.6693,-3.6715,-3.6731,-3.6716,-3.6412,0,0,0,0,0,-3.5628,-3.5739,-3.5834,-3.598,-3.6024,-3.6087,-3.6153,-3.6172,-3.6264,-3.6301,-3.6369,-3.646,-3.6573,-3.6646,-3.6755,-3.6937,-3.6962,-3.7016,-3.7032,-3.7046,-3.7063,-3.7164,-3.7189,-3.6919,-3.6919,-3.6919,0,0,-3.5688,-3.5765,-3.5833,-3.5989,-3.6059,-3.6174,-3.6118,-3.6242,-3.6328,-3.632,-3.6476,-3.653,-3.6633,-3.6805,-3.6885,-3.6854,-3.7143,-3.7061,-3.7071,-3.7081,-3.7179,-3.7205,-3.7227,-3.6927,-3.6926,-3.6924,0,0,-3.5856,-3.5925,-3.6054,-3.6125,-3.6231,-3.6272,-3.6303,-3.6408,-3.6443,-3.6601,-3.6597,-3.67,-3.6893,-3.6968,-3.7031,-3.7226,-3.7219,-3.7261,-3.7349,-3.7447,-3.7468,-3.7487,-3.7559,-3.7584,-3.7277,-3.7278,-3.7278,0,-3.5918,-3.609,-3.6122,-3.6247,-3.6316,-3.6313,-3.6445,-3.6513,-3.6649,-3.6697,-3.6661,-3.6904,-3.6974,-3.7164,-3.7212,-3.7262,-3.73,-3.7249,-3.7462,-3.7482,-3.75,-3.7569,-3.7595,-3.7282,-3.7282,-3.7281,-3.7281,0,-3.616,-3.628,-3.6372,-3.6503,-3.6583,-3.6711,-3.6763,-3.6839,-3.6851,-3.6896,-3.7056,-3.7139,-3.7265,-3.7311,-3.7324,-3.7504,-3.7482,-3.7454,-3.739,-3.753,-3.7595,-3.7621,-3.7288,-3.7287,-3.7286,-3.7284,0,0,-3.6358,-3.6505,-3.6539,-3.6599,-3.6715,-3.6809,-3.6936,-3.7059,-3.7125,-3.7219,-3.7328,-3.7491,-3.7466,-3.7538,-3.7558,-3.7644,-3.7796,-3.7606,-3.7609,-3.7639,-3.8,-3.8022,-3.8052,-3.7791,-3.7796,-3.78,-3.7992,0,-3.6539,-3.6766,-3.6798,-3.6998,-3.7109,-3.7108,-3.722,-3.7304,-3.7349,-3.7451,-3.7501,-3.7617,-3.7574,-3.7617,-3.7702,-3.7759,-3.7869,-3.7745,-3.7894,-3.7899,-3.787,-3.8085,-3.8109,-3.8286,-3.8018,-3.8022,-3.8025,0,-3.6781,-3.6881,-3.7092,-3.7194,-3.7242,-3.7342,-3.7457,-3.7554,-3.7649,-3.7676,-3.7756,-3.7766,-3.7899,-3.7828,-3.8013,-3.7928,-3.7991,-3.8028,-3.8036,-3.8052,-3.7972,-3.8109,-3.8344,-3.8371,-3.8065,-3.8062,-3.8059,0,-3.6906,-3.7094,-3.7244,-3.7295,-3.7418,-3.7488,-3.7542,-3.7633,-3.7705,-3.7805,-3.7853,-3.7967,-3.8031,-3.812,-3.8161,-3.8105,-3.8344,-3.8276,-3.8372,-3.8371,-3.8423,-3.842,-3.8673,-3.8461,-3.846,-3.846,-3.8459,0,-3.7106,-3.7235,-3.7302,-3.7395,-3.7541,-3.7577,-3.772,-3.7772,-3.7852,-3.7956,-3.7962,-3.8059,-3.8107,-3.8212,-3.8245,-3.8394,-3.8422,-3.8448,-3.8456,-3.8449,-3.8446,-3.8492,-3.8481,-3.8467,-3.8465,-3.8464,-3.8463,0,-3.7271,-3.7321,-3.7485,-3.7587,-3.7616,-3.7719,-3.7806,-3.7897,-3.7941,-3.8072,-3.8105,-3.8175,-3.8298,-3.8348,-3.8499,-3.8521,-3.8693,-3.869,-3.8661,-3.8664,-3.8757,-3.8748,-3.905,-3.9092,-3.885,-3.8853,-3.8854,0,-3.7396,-3.7496,-3.7608,-3.7677,-3.7734,-3.7846,-3.7919,-3.7958,-3.8034,-3.815,-3.8227,-3.835,-3.8451,-3.8649,-3.8714,-3.883,-3.8831,-3.8928,-3.8849,-3.8839,-3.8834,-3.8829,-3.8839,-3.8944,-3.8946,-3.8948,-3.895,0,-3.7613,-3.7633,-3.7738,-3.7852,-3.7939,-3.803,-3.812,-3.8176,-3.8229,-3.8314,-3.8441,-3.8519,-3.8673,-3.8796,-3.8916,-3.8972,-3.8971,-3.8974,-3.9003,-3.8998,-3.8977,-3.8991,-3.8703,-3.8967,-3.8966,-3.8964,-3.8963,-3.8963,-3.7764,-3.7852,-3.7945,-3.8062,-3.8133,-3.8217,-3.8307,-3.8362,-3.8468,-3.8596,-3.8613,-3.8748,-3.8842,-3.9002,-3.9064,-3.9171,-3.9146,-3.9186,-3.9197,-3.9207,-3.9214,-3.8958,-3.9192,-3.9192,-3.9192,-3.9191,-3.9191,0,-3.7982,-3.8042,-3.8149,-3.8274,-3.8366,-3.8354,-3.8453,-3.8531,-3.865,-3.8737,-3.8836,-3.8981,-3.91,-3.9174,-3.9294,-3.9366,-3.9368,-3.9396,-3.9392,-3.9406,-3.9229,-3.9193,-3.9392,-3.9392,-3.9392,-3.9392,-3.9392,-3.9392,-3.8107,-3.8258,-3.8288,-3.8474,-3.8532,-3.8665,-3.8722,-3.88,-3.8869,-3.9031,-3.913,-3.9176,-3.9259,-3.9384,-3.9494,-3.9512,-3.9557,-3.9587,-3.9604,-3.9439,-3.9418,-3.9398,-3.9364,-3.9596,-3.9596,-3.9772,-3.9774,-3.9775]}]]